[[{"header":{"parameterUnit":"m.s-1","parameterCategory":1,"la1":30.2991,"la2":30.254,"lo1":-89.0895,"lo2":-89.0444,"dy":0.0017,"dx":0.0017,"nx":28,"ny":28,"refTime":"2024-08-18T03:00:00:Z","depth":0,"parameterNumber":2,"parameterNumberName":"U-component_of_WINDS"},"data":[0,0,0,0,0,0,0,0,0,0,0,0,0,0,0,0,0,0,0,0,0,0,0,0,0,0,0,0,0,0,0,0,0,0,0,0,0,0,0,0,0,0,0,0,0,0,0,0,0,0,0,0,0,0,0,0,0,0,2.4356,2.4358,0,2.4508,2.451,2.4512,2.4518,2.4516,2.4514,2.4513,2.4674,2.468,2.4686,0,0,0,0,0,0,0,0,0,0,0,0,0,2.4076,2.4081,2.4356,2.4358,2.436,2.4508,2.451,2.4512,2.4518,2.4516,2.4514,2.4512,2.4672,2.4679,2.4686,0,0,0,0,0,0,0,0,0,0,0,0,0,2.421,2.4083,2.4356,2.438,2.4384,2.4508,2.451,2.4513,2.4519,2.4516,2.4513,2.4511,2.467,2.4678,2.4687,2.4798,0,0,2.4715,2.4719,0,0,0,0,0,0,0,0,2.4202,2.422,2.4375,2.4379,2.4383,2.4491,2.4471,2.4608,2.4519,2.4468,2.4513,2.4509,2.4616,2.4629,2.4664,2.4805,2.4812,2.4715,2.4721,2.4725,2.4727,0,0,0,0,0,0,0,2.4193,2.4214,2.4416,2.4377,2.4382,2.4386,2.4402,2.4497,2.4556,2.4472,2.4473,2.4491,2.4618,2.4655,2.4668,2.4814,2.4715,2.4723,2.4729,2.4732,2.5055,2.5058,0,0,0,0,0,0,2.4178,2.4206,2.4412,2.4421,2.4284,2.4393,2.4411,2.4459,2.4554,2.4566,2.4493,2.449,2.4641,2.4657,2.4673,2.4808,2.4725,2.4733,2.4738,2.5052,2.5056,2.5059,0,0,0,0,0,0,2.4172,2.4196,2.4405,2.4314,2.4341,2.4401,2.4455,2.4464,2.4501,2.457,2.4581,2.452,2.4639,2.4661,2.4766,2.4814,2.4737,2.4745,2.5048,2.5053,2.5057,2.508,0,0,0,0,0,0,2.4164,2.4194,2.4235,2.4314,2.4345,2.4494,2.4458,2.4469,2.4516,2.4514,2.4598,2.461,2.4639,2.4753,2.4775,2.4825,2.4752,2.5044,2.505,2.5056,2.5075,2.5085,2.5093,0,0,0,0,0,2.4154,2.4236,2.4237,2.4262,2.4398,2.4497,2.4515,2.4545,2.452,2.4563,2.4607,2.4607,2.4806,2.4764,2.4789,2.4842,2.5041,2.5049,2.5055,2.5071,2.5083,2.5093,0,0,0,0,0,0,2.4163,2.4247,2.4249,2.4359,2.4421,2.4498,2.4552,2.4557,2.4628,2.4623,2.466,2.4679,2.4784,2.4824,2.4776,2.4954,2.4921,2.4933,2.4924,2.4936,2.4944,2.4932,2.476,0,0,0,0,0,2.4177,2.4249,2.432,2.441,2.4441,2.4491,2.4536,2.4554,2.462,2.4646,2.4698,2.4763,2.4841,2.4891,2.4966,2.5082,2.51,2.5131,2.514,2.5147,2.5157,2.5221,2.5236,2.5083,2.5083,2.5082,0,0,2.4208,2.4264,2.4307,2.4414,2.4463,2.4538,2.4513,2.4594,2.465,2.4659,2.4761,2.4802,2.4878,2.4989,2.504,2.5025,2.5204,2.5156,2.5161,2.5167,2.523,2.5245,2.5257,2.5087,2.5087,2.5086,0,0,2.4303,2.4352,2.4432,2.4483,2.4558,2.4591,2.461,2.4687,2.4714,2.4817,2.4825,2.4894,2.5026,2.508,2.5124,2.524,2.5243,2.5264,2.531,2.5373,2.5385,2.5396,2.5437,2.5451,2.5274,2.5274,2.5274,0,2.4332,2.4443,2.4474,2.4554,2.4601,2.4612,2.4694,2.4742,2.4839,2.4872,2.4854,2.502,2.5071,2.5195,2.5223,2.5259,2.5283,2.5254,2.538,2.5392,2.5402,2.5442,2.5457,2.5276,2.5276,2.5276,2.5276,0,2.4476,2.4553,2.461,2.4701,2.4755,2.4836,2.488,2.4931,2.4946,2.4981,2.5087,2.5149,2.5237,2.5268,2.5284,2.5395,2.5383,2.5372,2.5339,2.5418,2.5456,2.5472,2.5279,2.5278,2.5278,2.5277,0,0,2.4578,2.4685,2.4705,2.4747,2.4831,2.4893,2.4976,2.5059,2.5103,2.517,2.524,2.5352,2.5343,2.5394,2.5416,2.5471,2.5558,2.5453,2.5456,2.547,2.5685,2.5691,2.5708,2.5561,2.5564,2.5567,2.5678,0,2.4681,2.4825,2.4856,2.4982,2.5054,2.5066,2.5138,2.5199,2.5235,2.5303,2.5344,2.5422,2.5404,2.5435,2.549,2.5536,2.5602,2.5528,2.5628,2.5631,2.5607,2.5728,2.5734,2.5836,2.5693,2.5695,2.5697,0,2.482,2.4888,2.502,2.5095,2.5127,2.5191,2.5271,2.5336,2.5405,2.5428,2.5485,2.5501,2.5589,2.5552,2.5675,2.5624,2.5668,2.5696,2.5701,2.571,2.5668,2.5739,2.5869,2.5884,2.5721,2.5719,2.5717,0,2.4879,2.5005,2.5101,2.5136,2.5226,2.5271,2.5311,2.5378,2.5427,2.5498,2.553,2.5611,2.5655,2.5719,2.5757,2.5727,2.5876,2.5843,2.5898,2.5897,2.5928,2.5925,2.6065,2.5958,2.5958,2.5957,2.5957,0,2.499,2.507,2.5129,2.5187,2.5278,2.5314,2.5403,2.5444,2.5503,2.5571,2.5588,2.5652,2.5699,2.577,2.5801,2.5898,2.5918,2.5939,2.5946,2.5937,2.5934,2.5965,2.5958,2.5961,2.596,2.596,2.5959,0,2.5071,2.5114,2.5218,2.5295,2.5317,2.538,2.5447,2.5505,2.5542,2.5628,2.5651,2.5709,2.5794,2.5838,2.5945,2.5965,2.6074,2.6077,2.6049,2.6052,2.6104,2.6098,2.6268,2.6292,2.6169,2.617,2.6171,0,2.5138,2.52,2.5284,2.5329,2.537,2.5444,2.5493,2.5532,2.5583,2.5668,2.5717,2.5802,2.5871,2.6006,2.6059,2.6141,2.6146,2.62,2.6158,2.6147,2.6146,2.6141,2.6147,2.6207,2.6208,2.6209,2.6209,0,2.5252,2.527,2.534,2.5418,2.5476,2.554,2.5603,2.564,2.569,2.5747,2.5832,2.5887,2.5995,2.6079,2.6165,2.6208,2.6218,2.6222,2.6239,2.6229,2.621,2.622,2.6068,2.6218,2.6217,2.6216,2.6216,2.6216,2.5327,2.5383,2.545,2.5528,2.558,2.5638,2.5697,2.5741,2.5812,2.5902,2.5921,2.6012,2.6082,2.6198,2.6244,2.6316,2.6305,2.633,2.6336,2.6341,2.6343,2.62,2.6332,2.6332,2.6332,2.6332,2.6332,0,2.5441,2.5485,2.5556,2.5643,2.5705,2.5708,2.5778,2.583,2.5909,2.5973,2.6041,2.614,2.6222,2.6282,2.6367,2.6413,2.642,2.6434,2.643,2.644,2.6348,2.6324,2.6427,2.6427,2.6427,2.6427,2.6427,2.6427,2.5507,2.5601,2.5627,2.5748,2.5792,2.588,2.5919,2.5974,2.6025,2.6134,2.6202,2.6241,2.6304,2.6393,2.6469,2.6485,2.6515,2.6528,2.6544,2.6457,2.6447,2.6437,2.6415,2.6535,2.6535,2.663,2.6631,2.6632]},{"header":{"parameterUnit":"m.s-1","parameterCategory":1,"la1":30.2991,"la2":30.254,"lo1":-89.0895,"lo2":-89.0444,"dy":0.0017,"dx":0.0017,"nx":28,"ny":28,"refTime":"2024-08-18T03:00:00:Z","depth":0,"parameterNumber":3,"parameterNumberName":"V-component_of_WINDS"},"data":[0,0,0,0,0,0,0,0,0,0,0,0,0,0,0,0,0,0,0,0,0,0,0,0,0,0,0,0,0,0,0,0,0,0,0,0,0,0,0,0,0,0,0,0,0,0,0,0,0,0,0,0,0,0,0,0,0,0,4.124,4.1242,0,4.1389,4.1391,4.1393,4.1388,4.1386,4.1384,4.1382,4.1524,4.153,4.1536,0,0,0,0,0,0,0,0,0,0,0,0,0,4.0939,4.0944,4.124,4.1242,4.1244,4.1389,4.1391,4.1393,4.1388,4.1386,4.1383,4.1381,4.1523,4.1529,4.1536,0,0,0,0,0,0,0,0,0,0,0,0,0,4.1077,4.0946,4.124,4.1259,4.1262,4.1389,4.1391,4.1394,4.1389,4.1386,4.1383,4.138,4.152,4.1529,4.1537,4.1651,0,0,4.1563,4.1567,0,0,0,0,0,0,0,0,4.1069,4.1088,4.1254,4.1258,4.1262,4.1367,4.1337,4.148,4.1389,4.134,4.1382,4.1378,4.1474,4.1486,4.152,4.1658,4.1664,4.1564,4.1569,4.1573,4.1575,0,0,0,0,0,0,0,4.1059,4.1081,4.1299,4.1256,4.1261,4.1256,4.1273,4.1364,4.1422,4.1344,4.1344,4.1363,4.1475,4.1512,4.1524,4.1666,4.1564,4.1571,4.1577,4.158,4.1902,4.1905,0,0,0,0,0,0,4.1047,4.1073,4.1294,4.1303,4.1156,4.1264,4.1282,4.1336,4.1421,4.1431,4.1365,4.1362,4.1499,4.1514,4.1529,4.1667,4.1573,4.1581,4.1586,4.1898,4.1902,4.1906,0,0,0,0,0,0,4.1041,4.1067,4.1288,4.1188,4.1216,4.1273,4.1333,4.1341,4.1378,4.1437,4.1446,4.1393,4.1497,4.1517,4.1621,4.1672,4.1585,4.1592,4.1894,4.19,4.1904,4.1945,0,0,0,0,0,0,4.1032,4.1065,4.1112,4.119,4.1222,4.1381,4.1336,4.1346,4.1394,4.1391,4.1466,4.1475,4.1496,4.1608,4.1629,4.1682,4.1599,4.189,4.1897,4.1903,4.1939,4.1951,4.1961,0,0,0,0,0,4.1021,4.1115,4.1114,4.1141,4.1282,4.1384,4.1402,4.1428,4.1398,4.1444,4.1481,4.1473,4.1663,4.1619,4.1643,4.1699,4.1887,4.1895,4.1902,4.1935,4.1949,4.196,0,0,0,0,0,0,4.1038,4.1126,4.1125,4.1248,4.1309,4.1383,4.1442,4.1442,4.151,4.1505,4.153,4.1547,4.1651,4.1685,4.1635,4.1812,4.177,4.1783,4.1787,4.1801,4.1811,4.1801,4.1606,0,0,0,0,0,4.1057,4.1136,4.1207,4.1308,4.1339,4.1385,4.1431,4.1445,4.1508,4.1533,4.1578,4.1637,4.1709,4.1757,4.1827,4.1944,4.1959,4.1994,4.2004,4.2013,4.2023,4.2086,4.2102,4.1931,4.1931,4.1931,0,0,4.1094,4.1152,4.12,4.1312,4.1362,4.144,4.1407,4.1491,4.1548,4.1545,4.1647,4.1682,4.1748,4.1859,4.191,4.1891,4.2074,4.2023,4.2029,4.2035,4.2095,4.2112,4.2126,4.1937,4.1936,4.1935,0,0,4.1204,4.1256,4.1346,4.1396,4.1472,4.1502,4.1523,4.1598,4.1622,4.1726,4.1724,4.179,4.1916,4.1963,4.2003,4.2129,4.2123,4.2151,4.2206,4.2267,4.228,4.2292,4.2336,4.2352,4.2161,4.2161,4.2161,0,4.124,4.1362,4.1391,4.1477,4.1525,4.1528,4.1617,4.1663,4.1756,4.1788,4.1765,4.1922,4.1967,4.2088,4.2119,4.2152,4.2174,4.2143,4.2277,4.2289,4.2301,4.2343,4.2359,4.2164,4.2164,4.2163,4.2163,0,4.1403,4.1487,4.1549,4.1643,4.1698,4.1785,4.1823,4.1874,4.1883,4.1915,4.2018,4.2072,4.2153,4.2183,4.2191,4.2304,4.229,4.2272,4.223,4.232,4.2359,4.2376,4.2168,4.2167,4.2166,4.2165,0,0,4.1527,4.1637,4.1659,4.1701,4.1784,4.1848,4.1933,4.2015,4.2058,4.2121,4.2191,4.2297,4.2281,4.2326,4.234,4.2393,4.2488,4.2368,4.237,4.2388,4.2614,4.2627,4.2646,4.2484,4.2487,4.249,4.2608,0,4.1645,4.1801,4.1828,4.1963,4.2039,4.2042,4.2116,4.2172,4.2203,4.2269,4.2301,4.2376,4.235,4.2377,4.243,4.2465,4.2533,4.2457,4.2547,4.2549,4.2531,4.2667,4.2681,4.2791,4.2624,4.2627,4.2629,0,4.1804,4.1875,4.2018,4.209,4.2123,4.219,4.2266,4.2331,4.2394,4.2412,4.2463,4.247,4.2555,4.2509,4.2624,4.2572,4.2609,4.2632,4.2637,4.2646,4.2595,4.2679,4.2827,4.2843,4.2653,4.2651,4.265,0,4.188,4.2011,4.2113,4.2149,4.2236,4.2282,4.232,4.238,4.2428,4.2493,4.2523,4.2597,4.2636,4.2691,4.2716,4.2681,4.2829,4.2786,4.2844,4.2844,4.2876,4.2873,4.3031,4.29,4.29,4.29,4.2899,0,4.2008,4.2095,4.2149,4.2212,4.2308,4.2337,4.243,4.2466,4.2519,4.2586,4.2592,4.2654,4.2683,4.2749,4.2768,4.286,4.2877,4.2892,4.2897,4.2892,4.289,4.2918,4.291,4.2904,4.2903,4.2902,4.2901,0,4.211,4.2149,4.2261,4.2335,4.2355,4.2423,4.2484,4.2543,4.2573,4.2658,4.2679,4.2725,4.2802,4.2833,4.2926,4.2939,4.3045,4.3043,4.3025,4.3026,4.3083,4.3077,4.3263,4.3288,4.3141,4.3142,4.3143,0,4.2189,4.2257,4.2339,4.2386,4.2426,4.2501,4.2551,4.258,4.263,4.2706,4.2756,4.2833,4.2898,4.302,4.3059,4.313,4.313,4.319,4.314,4.3134,4.313,4.3126,4.3132,4.3199,4.3201,4.3202,4.3203,0,4.2326,4.2342,4.2415,4.2494,4.2554,4.2616,4.2677,4.2714,4.2752,4.2807,4.2889,4.2938,4.3035,4.3111,4.3184,4.3218,4.3216,4.3218,4.3236,4.3232,4.3219,4.3226,4.305,4.3214,4.3213,4.3212,4.3211,4.3211,4.2419,4.2479,4.2546,4.2626,4.2675,4.2732,4.2792,4.283,4.2899,4.2983,4.2995,4.3081,4.3139,4.3238,4.3275,4.334,4.3324,4.3349,4.3355,4.3361,4.3365,4.3209,4.3353,4.3353,4.3353,4.3353,4.3352,0,4.2555,4.2599,4.2673,4.2759,4.2821,4.2817,4.2884,4.2935,4.3012,4.3069,4.3133,4.3224,4.3298,4.3343,4.3417,4.346,4.3461,4.3478,4.3475,4.3483,4.3376,4.3353,4.3476,4.3476,4.3476,4.3476,4.3476,4.3476,4.2634,4.2735,4.2759,4.2883,4.2925,4.3013,4.3051,4.3102,4.3148,4.3251,4.3314,4.3344,4.3395,4.3472,4.3539,4.355,4.3576,4.3595,4.3604,4.3503,4.3491,4.3478,4.3458,4.3601,4.3601,4.3707,4.3708,4.3708]}]]